Regional Weather Roundup
Issued by NWS

Home | Current Version | Previous Version | Graphics & Text | Print | Product List | Glossary On
Versions: 1 2 3 4 5 6 7 8 9 10 11 12 13 14 15 16 17 18 19 20 21 22 23 24 25 26 27 28 29 30 31 32 33 34 35 36 37 38 39 40 41 42 43 44 45 46 47 48 49 50
000
ASUS43 KIND 012109
RWRIN

WEATHER ROUNDUP FOR INDIANA
NATIONAL WEATHER SERVICE INDIANAPOLIS IN
400 PM EST SUN MAR 01 2015

NOTE: "FAIR" INDICATES FEW OR NO CLOUDS BELOW 12,000 FEET WITH NO
SIGNIFICANT WEATHER AND/OR OBSTRUCTIONS TO VISIBILITY.

* - STATION DOES NOT REPORT WEATHER SUCH AS PRECIPITATION OR FOG.

+ - STATION NOT QUALITY CONTROLLED BY THE NATIONAL WEATHER SERVICE.
    USE DATA WITH CAUTION...ESPECIALLY DEWPOINT AND RELATIVE
    HUMIDITY OBSERVATIONS.

INZ001>003-010>013-019-020-012200-
NORTHWEST INDIANA

CITY           SKY/WX    TMP DP  RH WIND       PRES   REMARKS
GARY /AIRPORT/ CLOUDY    28  16  59 SW8       30.30F WCI  20
KNOX *+          N/A     25  10  54 W5        30.28F WCI  19
LA PORTE +     LGT RAIN  27  19  72 SW6       30.28F WCI  20
MICHIGAN CITY+ FLURRIES  27  16  63 SW7       30.29F WCI  19
MONTICELLO +   CLOUDY    25  21  85 NW6       30.30R WCI  18
RENSSELAER +   CLOUDY    28  25  86 W5        30.30F WCI  23
VALPARAISO     PTSUNNY   24  18  77 SW8       30.28F WCI  15

$$

LMZ046-743>745-012200-
SOUTHERN LAKE MICHIGAN

STATION/POSITION TIME  TEMP WIND        PRES
                       AIR  DIR/SP/G
                 (UTC) (F)  (DEG/KT/KT) (MB)
MICHIGAN CITY    2100   25  260/  7/  8   N/A

$$

INZ004-005-014>016-021>024-012200-
NORTH CENTRAL INDIANA

CITY           SKY/WX    TMP DP  RH WIND       PRES   REMARKS
GOSHEN         CLOUDY    23  18  81 W6        30.27F HAZE    WCI  16
LOGANSPORT +   CLOUDY    27  23  86 W5        30.30R WCI  21
ROCHESTER +    PTSUNNY   30  23  74 W5        30.29S WCI  25
SOUTH BEND     CLOUDY    25  17  72 SW3       30.28F
WARSAW +       PTSUNNY   25  19  80 NW5       30.28S WCI  19

$$

INZ006>009-017-018-025>027-012200-
NORTHEAST INDIANA

CITY           SKY/WX    TMP DP  RH WIND       PRES   REMARKS
ANGOLA *+      PTSUNNY   23  18  80 NW6       30.25F WCI  16
FORT WAYNE     CLOUDY    27  21  78 CALM      30.28R
HUNTINGTON +   CLOUDY    26  19  75 NE3       30.27S

$$

INZ028-029-035-036-043>045-051>053-012200-
WEST CENTRAL INDIANA

CITY           SKY/WX    TMP DP  RH WIND       PRES   REMARKS
CRAWFORDSVL +  CLOUDY    26  19  76 NW5       30.29S WCI  20
GREENCASTLE +  CLOUDY    30  25  80 NW3       30.29S
LAFAYETTE      CLOUDY    26  21  81 NW8       30.31S WCI  18
TERRE HAUTE    CLOUDY    30  26  85 N5        30.31S WCI  25

$$

INZ030>032-037>040-046>048-054>057-064-065-012200-
CENTRAL INDIANA

CITY           SKY/WX    TMP DP  RH WIND       PRES   REMARKS
CP ATTERBURY + DRIZZLE   32  32 100 N3        30.29S
COLUMBUS       CLOUDY    30  28  93 CALM      30.29F FOG
FRANKFORT +    SUNNY     29  25  83 SW3       30.29F
GREENWOOD *+   CLOUDY    30  27  86 NW3       30.27F
INDIANAPOLIS   FLURRIES  30  25  81 NW5       30.27S WCI  25
-EAGLE CREEK   CLOUDY    28  25  88 N5        30.28R WCI  23
KOKOMO *+      MOSUNNY   27  23  86 W6        30.28S WCI  20
MARION +       CLOUDY    25  22  85 W3        30.28S FOG
MT COMFORT *+  CLOUDY    30  25  80 N3        30.28R
SHELBYVILLE    CLOUDY    34  29  82 CALM      30.27S HAZE
ZIONSVILLE +   CLOUDY    29  24  80 CALM      30.27F

$$

INZ033-034-041-042-049-050-058-059-012200-
EAST CENTRAL INDIANA

CITY           SKY/WX    TMP DP  RH WIND       PRES   REMARKS
MUNCIE         CLOUDY    27  24  89 NW5       30.26F WCI  22

$$

INZ060-061-067>069-081>083-085>088-012200-
SOUTHWEST INDIANA

CITY           SKY/WX    TMP DP  RH WIND       PRES   REMARKS
EVANSVILLE     CLOUDY    36  30  79 NW7       30.35R HAZE
HUNTINGBURG *+ PTSUNNY   36  28  75 W7        30.32S
WASHINGTON +   CLOUDY    32  29  88 W3        30.32R FOG

$$

INZ062-063-066-070>080-084-089>092-012200-
SOUTH CENTRAL AND SOUTHEAST INDIANA

CITY           SKY/WX    TMP DP  RH WIND       PRES   REMARKS
BLOOMINGTON    CLOUDY    32  30  92 W5        30.29R FOG     WCI  27
NORTH VERNON + CLOUDY    34  34 100 W5        30.29R FOG     WCI  30
SEYMOUR +      DRZL/FOG  36  32  87 CALM      30.29S VSB 3/4

$$



USA.gov is the U.S. government's official web portal to all federal, state and local government web resources and services.